�������l�o���
Date,Time,MP-1(��Sv/h),MP-2(��Sv/h),MP-3(��Sv/h),MP-4(��Sv/h),MP-5(��Sv/h),MP-6(��Sv/h),MP-7(��Sv/h),MP-8(��Sv/h),����,����(m/s),���J
2022/04/23,00:00,0.570,0.837,0.541,1.015,0.721,0.346,0.595,0.563,�쐼,4.1,��
2022/04/23,00:10,0.569,0.839,0.540,1.015,0.723,0.346,0.594,0.562,�쐼,4.6,��
2022/04/23,00:20,0.568,0.839,0.542,1.015,0.723,0.347,0.596,0.563,�쐼,5.2,��
2022/04/23,00:30,0.568,0.839,0.543,1.018,0.721,0.345,0.594,0.564,�쐼,5.1,��
2022/04/23,00:40,0.569,0.840,0.541,1.016,0.720,0.346,0.595,0.564,�쐼,5.6,��
2022/04/23,00:50,0.568,0.838,0.544,1.017,0.724,0.345,0.596,0.563,�쐼,2.8,��
2022/04/23,01:00,0.570,0.839,0.543,1.016,0.722,0.347,0.597,0.563,��,2.0,��
2022/04/23,01:10,0.569,0.839,0.542,1.015,0.721,0.347,0.595,0.562,���쐼,1.5,��
2022/04/23,01:20,0.569,0.838,0.543,1.016,0.722,0.347,0.596,0.564,���쐼,2.2,��
2022/04/23,01:30,0.568,0.839,0.540,1.014,0.722,0.347,0.595,0.562,���쐼,2.8,��
2022/04/23,01:40,0.569,0.838,0.541,1.015,0.724,0.346,0.595,0.563,�쐼,2.9,��
2022/04/23,01:50,0.568,0.841,0.542,1.016,0.722,0.347,0.594,0.563,��쐼,3.3,��
2022/04/23,02:00,0.568,0.837,0.542,1.016,0.722,0.347,0.596,0.561,��쐼,3.7,��
2022/04/23,02:10,0.568,0.837,0.541,1.015,0.722,0.347,0.596,0.562,��,2.2,��
2022/04/23,02:20,0.568,0.838,0.541,1.017,0.721,0.346,0.596,0.563,��,2.3,��
2022/04/23,02:30,0.570,0.837,0.542,1.017,0.722,0.346,0.595,0.563,��쓌,2.0,��
2022/04/23,02:40,0.567,0.839,0.542,1.014,0.721,0.346,0.595,0.562,�쓌,2.2,��
2022/04/23,02:50,0.568,0.839,0.542,1.016,0.721,0.348,0.595,0.563,��쓌,1.9,��
2022/04/23,03:00,0.568,0.839,0.541,1.017,0.722,0.347,0.594,0.563,��,2.3,��
2022/04/23,03:10,0.567,0.840,0.541,1.017,0.723,0.347,0.595,0.562,���쐼,2.2,��
2022/04/23,03:20,0.568,0.838,0.542,1.017,0.721,0.347,0.593,0.562,���쐼,2.0,��
2022/04/23,03:30,0.568,0.837,0.541,1.016,0.722,0.346,0.594,0.563,��,2.2,��
2022/04/23,03:40,0.567,0.839,0.543,1.013,0.721,0.347,0.595,0.562,�k,1.4,��
2022/04/23,03:50,0.569,0.837,0.542,1.016,0.721,0.346,0.595,0.563,�k,2.0,��
2022/04/23,04:00,0.570,0.836,0.541,1.017,0.722,0.348,0.596,0.563,�k��,1.5,��
2022/04/23,04:10,0.569,0.840,0.541,1.016,0.722,0.346,0.594,0.563,�k��,0.6,��
2022/04/23,04:20,0.569,0.839,0.541,1.017,0.721,0.347,0.595,0.562,���쓌,0.8,��
2022/04/23,04:30,0.567,0.838,0.541,1.018,0.721,0.348,0.595,0.563,-,CALM,��
2022/04/23,04:40,0.570,0.840,0.543,1.014,0.720,0.348,0.594,0.565,�쓌,0.6,��
2022/04/23,04:50,0.571,0.838,0.543,1.017,0.723,0.347,0.595,0.563,�k,0.8,��
2022/04/23,05:00,0.569,0.838,0.542,1.017,0.722,0.346,0.596,0.564,�k�k��,1.5,��
2022/04/23,05:10,0.570,0.838,0.541,1.015,0.721,0.348,0.594,0.563,�k�k��,1.2,��
2022/04/23,05:20,0.569,0.837,0.542,1.017,0.721,0.346,0.595,0.563,�k��,2.5,��
2022/04/23,05:30,0.568,0.839,0.544,1.016,0.721,0.347,0.595,0.563,�k��,2.5,��
2022/04/23,05:40,0.570,0.839,0.542,1.014,0.721,0.347,0.597,0.562,���k��,3.3,��
2022/04/23,05:50,0.568,0.838,0.544,1.017,0.722,0.346,0.595,0.564,���k��,2.2,��
2022/04/23,06:00,0.571,0.839,0.542,1.014,0.721,0.347,0.596,0.564,�k��,1.9,��
2022/04/23,06:10,0.571,0.841,0.542,1.018,0.722,0.347,0.595,0.561,���k��,0.9,��
2022/04/23,06:20,0.571,0.840,0.543,1.018,0.721,0.346,0.595,0.563,�k��,1.7,��
2022/04/23,06:30,0.571,0.838,0.542,1.018,0.722,0.346,0.595,0.562,�k�k��,1.4,��
2022/04/23,06:40,0.570,0.838,0.541,1.016,0.723,0.347,0.596,0.564,���k��,2.2,��
2022/04/23,06:50,0.570,0.842,0.545,1.017,0.723,0.345,0.596,0.564,�k��,1.2,��
2022/04/23,07:00,0.572,0.840,0.541,1.019,0.722,0.347,0.596,0.563,�k�k��,3.8,��
2022/04/23,07:10,0.571,0.840,0.543,1.016,0.723,0.348,0.596,0.566,�k��,2.8,��
2022/04/23,07:20,0.572,0.840,0.542,1.019,0.723,0.347,0.595,0.564,�k��,3.6,��
2022/04/23,07:30,0.572,0.842,0.544,1.018,0.722,0.347,0.596,0.564,�k�k��,3.7,��
2022/04/23,07:40,0.571,0.840,0.542,1.019,0.725,0.348,0.596,0.563,�k�k��,3.9,��
2022/04/23,07:50,0.572,0.841,0.544,1.019,0.724,0.346,0.595,0.563,�k��,5.2,��
2022/04/23,08:00,0.573,0.840,0.542,1.019,0.725,0.347,0.595,0.563,�k��,4.6,��
2022/04/23,08:10,0.570,0.840,0.546,1.020,0.723,0.345,0.595,0.561,�k�k��,4.8,��
2022/04/23,08:20,0.571,0.841,0.544,1.020,0.725,0.346,0.595,0.563,�k�k��,4.1,��
2022/04/23,08:30,0.571,0.839,0.545,1.019,0.723,0.345,0.593,0.563,�k�k��,4.0,��
2022/04/23,08:40,0.571,0.840,0.545,1.018,0.724,0.346,0.594,0.563,�k�k��,3.7,��
2022/04/23,08:50,0.570,0.839,0.545,1.019,0.723,0.345,0.594,0.562,�k��,2.3,��
2022/04/23,09:00,0.570,0.840,0.544,1.020,0.723,0.345,0.595,0.562,���k��,2.5,��
2022/04/23,09:10,0.570,0.838,0.545,1.020,0.723,0.346,0.595,0.563,���k��,2.8,��
2022/04/23,09:20,0.569,0.837,0.544,1.018,0.724,0.347,0.596,0.562,��,3.8,��
2022/04/23,09:30,0.569,0.837,0.545,1.020,0.721,0.346,0.596,0.562,��,6.3,��
2022/04/23,09:40,0.573,0.839,0.544,1.018,0.722,0.347,0.596,0.562,��,5.4,��
2022/04/23,09:50,0.571,0.839,0.544,1.018,0.723,0.347,0.596,0.562,���k��,7.4,��
2022/04/23,10:00,0.571,0.836,0.543,1.019,0.723,0.346,0.597,0.561,��,7.3,��
2022/04/23,10:10,0.573,0.840,0.542,1.018,0.722,0.348,0.596,0.562,���쐼,8.2,��
2022/04/23,10:20,0.572,0.841,0.543,1.020,0.723,0.346,0.598,0.562,���쐼,10.2,��
2022/04/23,10:30,0.573,0.840,0.542,1.022,0.723,0.347,0.597,0.562,��,6.0,��
2022/04/23,10:40,0.572,0.840,0.542,1.021,0.723,0.346,0.597,0.563,�쐼,2.0,��
2022/04/23,10:50,0.572,0.839,0.544,1.020,0.721,0.346,0.596,0.564,��쐼,2.6,��
2022/04/23,11:00,0.571,0.840,0.543,1.020,0.722,0.347,0.597,0.561,�쐼,1.7,��
2022/04/23,11:10,0.572,0.840,0.543,1.021,0.725,0.345,0.596,0.562,�쐼,2.0,��
2022/04/23,11:20,0.572,0.841,0.543,1.022,0.723,0.348,0.598,0.564,��,4.2,��
2022/04/23,11:30,0.573,0.840,0.543,1.022,0.723,0.347,0.598,0.563,��,3.1,��
2022/04/23,11:40,0.570,0.841,0.542,1.022,0.724,0.349,0.596,0.562,���k��,2.3,��
2022/04/23,11:50,0.570,0.844,0.543,1.023,0.725,0.347,0.597,0.563,�k�k��,2.3,��
2022/04/23,12:00,0.572,0.841,0.544,1.021,0.723,0.348,0.596,0.561,�k�k��,3.8,��
2022/04/23,12:10,0.573,0.843,0.543,1.023,0.725,0.347,0.599,0.563,���k��,3.8,��
2022/04/23,12:20,0.574,0.842,0.546,1.025,0.726,0.348,0.599,0.565,��,8.1,��
2022/04/23,12:30,0.574,0.842,0.545,1.023,0.724,0.348,0.599,0.564,��,7.3,��
2022/04/23,12:40,0.573,0.845,0.544,1.024,0.725,0.348,0.598,0.565,��,7.5,��
2022/04/23,12:50,0.573,0.844,0.544,1.024,0.727,0.349,0.599,0.565,���k��,6.8,��
2022/04/23,13:00,0.573,0.845,0.546,1.024,0.727,0.349,0.600,0.564,��,8.0,��
2022/04/23,13:10,0.574,0.845,0.544,1.025,0.727,0.348,0.599,0.565,��,11.9,��
2022/04/23,13:20,0.574,0.845,0.545,1.025,0.727,0.348,0.601,0.563,��,9.4,��
2022/04/23,13:30,0.575,0.845,0.547,1.025,0.729,0.348,0.601,0.564,��,10.0,��
2022/04/23,13:40,0.575,0.846,0.547,1.024,0.729,0.348,0.600,0.564,��,10.9,��
2022/04/23,13:50,0.575,0.844,0.547,1.025,0.728,0.349,0.599,0.565,���k��,13.3,��
2022/04/23,14:00,0.575,0.845,0.546,1.026,0.728,0.347,0.599,0.566,��,13.5,��
2022/04/23,14:10,0.574,0.847,0.546,1.025,0.730,0.348,0.599,0.565,��,9.4,��
2022/04/23,14:20,0.574,0.846,0.547,1.024,0.729,0.349,0.599,0.565,��,10.2,��
2022/04/23,14:30,0.575,0.845,0.545,1.026,0.728,0.348,0.597,0.566,��,9.7,��
2022/04/23,14:40,0.576,0.846,0.547,1.024,0.728,0.348,0.599,0.565,��,11.6,��
2022/04/23,14:50,0.573,0.847,0.547,1.026,0.729,0.346,0.599,0.564,��,10.9,��
2022/04/23,15:00,0.574,0.848,0.545,1.028,0.727,0.348,0.597,0.564,��,8.9,��
2022/04/23,15:10,0.576,0.846,0.544,1.025,0.728,0.348,0.600,0.565,���k��,7.6,��
2022/04/23,15:20,0.575,0.846,0.545,1.026,0.728,0.347,0.599,0.565,��,9.7,��
2022/04/23,15:30,0.575,0.848,0.546,1.027,0.729,0.348,0.599,0.565,��,9.3,��
2022/04/23,15:40,0.575,0.847,0.545,1.028,0.728,0.349,0.598,0.564,��,10.3,��
2022/04/23,15:50,0.574,0.849,0.546,1.026,0.728,0.348,0.598,0.566,��,9.1,��
2022/04/23,16:00,0.574,0.849,0.544,1.027,0.728,0.348,0.600,0.566,��,7.3,��
2022/04/23,16:10,0.574,0.848,0.546,1.029,0.728,0.348,0.598,0.564,��,10.2,��
2022/04/23,16:20,0.574,0.847,0.544,1.030,0.728,0.347,0.598,0.565,��,9.1,��
2022/04/23,16:30,0.573,0.849,0.544,1.029,0.729,0.346,0.598,0.565,���k��,7.9,��
2022/04/23,16:40,0.573,0.847,0.544,1.028,0.728,0.347,0.598,0.566,��,7.2,��
2022/04/23,16:50,0.573,0.846,0.546,1.030,0.730,0.347,0.598,0.566,��,8.1,��
2022/04/23,17:00,0.574,0.848,0.544,1.030,0.729,0.348,0.597,0.566,��,7.5,��
2022/04/23,17:10,0.575,0.847,0.545,1.029,0.729,0.346,0.597,0.565,��,9.7,��
2022/04/23,17:20,0.572,0.848,0.544,1.028,0.729,0.346,0.598,0.565,��,8.3,��
2022/04/23,17:30,0.573,0.846,0.544,1.029,0.730,0.348,0.598,0.567,���k��,10.6,��
2022/04/23,17:40,0.573,0.848,0.543,1.029,0.727,0.347,0.597,0.566,���k��,6.4,��
2022/04/23,17:50,0.574,0.851,0.543,1.029,0.728,0.346,0.599,0.566,���k��,5.2,��
2022/04/23,18:00,0.573,0.849,0.543,1.032,0.728,0.347,0.595,0.566,���k��,1.9,��
2022/04/23,18:10,0.574,0.852,0.544,1.034,0.728,0.348,0.597,0.566,�k�k��,2.3,��
2022/04/23,18:20,0.573,0.852,0.546,1.031,0.730,0.349,0.596,0.566,�k�k��,2.3,��
2022/04/23,18:30,0.572,0.850,0.546,1.033,0.730,0.347,0.596,0.566,�k,1.7,��
2022/04/23,18:40,0.576,0.851,0.547,1.033,0.730,0.348,0.598,0.565,�k�k��,4.6,��
2022/04/23,18:50,0.574,0.851,0.546,1.030,0.730,0.347,0.596,0.569,�k,4.9,��
2022/04/23,19:00,0.575,0.849,0.546,1.032,0.733,0.348,0.598,0.566,�k,5.0,��
2022/04/23,19:10,0.574,0.852,0.547,1.034,0.734,0.347,0.598,0.567,�k�k��,5.5,��
2022/04/23,19:20,0.575,0.851,0.546,1.032,0.731,0.349,0.599,0.567,�k,5.4,��
2022/04/23,19:30,0.575,0.849,0.547,1.032,0.731,0.347,0.598,0.568,�k,4.6,��
2022/04/23,19:40,0.575,0.850,0.546,1.032,0.732,0.349,0.598,0.566,�k,3.7,��
2022/04/23,19:50,0.574,0.851,0.546,1.031,0.733,0.349,0.596,0.567,�k,3.4,��
2022/04/23,20:00,0.574,0.848,0.546,1.031,0.733,0.348,0.600,0.566,�k,3.3,��
2022/04/23,20:10,0.573,0.849,0.545,1.031,0.731,0.348,0.598,0.567,�k�k��,3.6,��
2022/04/23,20:20,0.574,0.849,0.545,1.031,0.730,0.348,0.599,0.567,�k�k��,4.6,��
2022/04/23,20:30,0.574,0.849,0.546,1.033,0.733,0.348,0.600,0.567,�k,3.5,��
2022/04/23,20:40,0.574,0.849,0.545,1.032,0.733,0.349,0.600,0.568,�k�k��,3.5,��
2022/04/23,20:50,0.574,0.849,0.546,1.033,0.731,0.349,0.599,0.567,�k�k��,5.7,��
2022/04/23,21:00,0.572,0.848,0.546,1.032,0.730,0.349,0.599,0.565,�k�k��,5.7,��
2022/04/23,21:10,0.574,0.850,0.546,1.031,0.732,0.349,0.598,0.566,�k,5.3,��
2022/04/23,21:20,0.574,0.849,0.545,1.031,0.732,0.348,0.598,0.566,�k,5.7,��
2022/04/23,21:30,0.572,0.846,0.545,1.032,0.730,0.349,0.597,0.566,�k,6.0,��
2022/04/23,21:40,0.573,0.849,0.545,1.031,0.730,0.347,0.599,0.564,�k,5.4,��
2022/04/23,21:50,0.574,0.849,0.544,1.031,0.732,0.349,0.601,0.565,�k,5.3,��
2022/04/23,22:00,0.573,0.850,0.546,1.033,0.733,0.348,0.597,0.566,�k�k��,5.2,��
2022/04/23,22:10,0.571,0.850,0.545,1.030,0.731,0.347,0.599,0.566,�k,5.4,��
2022/04/23,22:20,0.575,0.850,0.545,1.031,0.732,0.347,0.599,0.565,�k�k��,5.7,��
2022/04/23,22:30,0.573,0.847,0.544,1.031,0.730,0.348,0.598,0.566,�k�k��,3.8,��
2022/04/23,22:40,0.573,0.851,0.543,1.032,0.729,0.345,0.599,0.565,�k��,5.8,��
2022/04/23,22:50,0.571,0.848,0.546,1.031,0.730,0.348,0.598,0.566,�k,5.7,��
2022/04/23,23:00,0.570,0.850,0.544,1.033,0.730,0.347,0.597,0.565,�k��,5.2,��
2022/04/23,23:10,0.572,0.848,0.544,1.033,0.731,0.347,0.597,0.567,�k,4.4,��
2022/04/23,23:20,0.573,0.848,0.544,1.033,0.732,0.347,0.598,0.565,�k�k��,5.2,��
2022/04/23,23:30,0.571,0.849,0.544,1.031,0.732,0.347,0.598,0.564,�k,6.4,��
2022/04/23,23:40,0.572,0.848,0.542,1.032,0.732,0.347,0.598,0.566,�k,5.6,��
2022/04/23,23:50,0.571,0.848,0.544,1.029,0.731,0.346,0.598,0.566,�k,5.9,��
